Home > Weather > Aalen > Past weeks

Flag for Germany Past Weather in Aalen, Baden-Württemberg, Germany — Yesterday and Last 2 Weeks

Now
82 °F

Pleasantly warm.


Feels Like: 82 °F
Forecast: 59 / 82 °F
Wind: 14 mph from Southeast

Location: Niederstetten

Current Time: Aug 24, 2016 at 2:25:38 PM

Latest Report: Aug 24, 2016 at 1:20 PM


Visibility: N/A

Pressure: 30.27 "Hg

Humidity: 40%

Dew Point: 55 °F

Location of AalenLocation

Past Weather in Aalen — Graph

°F

Aalen Temperature Yesterday

Maximum temperature yesterday: 81 °F (at 5:20 PM)
Minimum temperature yesterday: 54 °F (at 5:20 AM)
Average temperature yesterday: 67 °F

High & Low Weather Summary for the Past Weeks

 TemperatureHumidityPressure
High81 °F (Aug 23, 5:20 PM)100% (Aug 12, 7:20 AM)30.42 "Hg (Aug 12, 7:20 AM)
Low41 °F (Aug 11, 6:20 AM)34% (Aug 17, 5:20 PM)29.83 "Hg (Aug 18, 7:20 AM)
Average63 °F70%30.14 "Hg
* Reported Aug 9 12:20 PM — Aug 24 12:20 PM, Aalen, Weather by CustomWeather, © 2016

Note: Actual official high and low records may vary slightly from our data, if they occured in-between our weather recording intervals... More about our weather records

Advertising

Aalen Weather History for the Previous 24 Hours

Scroll right to see more
 ConditionsComfort  
Time TempWeatherWind HumidityBarometerVisibility
12:20 PM
Wed, Aug 24
81 °FWarm.15 mph42%30.27 "HgN/A
11:20 AM79 °FWarm.13 mph48%30.27 "HgN/A
10:20 AM75 °FMild.14 mph54%30.30 "HgN/A
9:20 AM72 °FMild.9 mph65%30.30 "HgN/A
8:20 AM66 °FMild.7 mph73%30.30 "HgN/A
7:20 AM61 °FCool.6 mph83%30.27 "HgN/A
6:20 AM59 °FCool.5 mph88%30.30 "HgN/A
5:20 AM59 °FCool.5 mph88%30.27 "HgN/A
4:20 AM63 °FMild.3 mph77%30.30 "HgN/A
3:20 AM63 °FMild.6 mph77%30.30 "HgN/A
2:20 AM64 °FMild.6 mph73%30.30 "HgN/A
1:20 AM64 °FMild.6 mph73%30.30 "HgN/A
12:20 AM64 °FMild.5 mph73%30.33 "HgN/A
11:45 PM
Tue, Aug 23
64 °FMild.6 mph73%30.33 "HgN/A
11:20 PM66 °FMild.5 mph68%30.30 "HgN/A
10:20 PM66 °FMild.5 mph64%30.33 "HgN/A
9:20 PM68 °FPassing clouds.5 mph60%30.33 "HgN/A
8:20 PM73 °FPassing clouds.3 mph50%30.30 "HgN/A
7:20 PM77 °FPassing clouds.6 mph44%30.30 "HgN/A
6:20 PM79 °FPassing clouds.6 mph45%30.30 "HgN/A
5:20 PM81 °FPassing clouds.6 mph42%30.33 "HgN/A
4:20 PM79 °FPassing clouds.3 mph45%30.33 "HgN/A
3:20 PM79 °FPassing clouds.2 mph45%30.33 "HgN/A
2:20 PM77 °FPassing clouds.3 mph47%30.36 "HgN/A
Weather by CustomWeather, © 2016

See weather overviewHow to use our weather pages